sat.trackr.live / text

‹ back to catalog

ICEYE-X71

NORAD 68494 · 2026-067CG

PAYLOAD ACTIVE UNKNOWN

§ Identity

Operator
Country
FIN
Launch date
2026-03-30
Launch site
AFWTR
Launch vehicle
Mass (kg)
RCS (m²)

External: N2YO · Heavens-Above · Gunter

§ Orbital elements

Epoch: 2026-05-24T20:25:11.454528Z

Period
96.54 min
Inclination
97.7599°
Eccentricity
0.0003786
Mean motion
14.91534553 rev/d
Perigee alt
590.5 km
Apogee alt
595.8 km
Semi-major
6,971.3 km
B*
2.0030e-4
RAAN
103.4508°
Arg perigee
94.6774°
Mean anomaly
265.4877°
Rev number
824

§ Raw data

ICEYE-X711 68494U 26067CG  26144.85082702  .00001951  00000+0  20030-3 0  99942 68494  97.7599 103.4508 0003786  94.6774 265.4877 14.91534553  8244

JSON: /api/v1/satellites/68494 · /tle

For live sub-satellite position, see the globe view (requires WebGL).

§ Visibility from observer

Set your observer location to see the next 7 days of passes ≥ 10°. The values pass through the URL so the page stays shareable.

No JS? Fill the form by hand. The geolocation button needs JavaScript.